KE5KZS Weather Reports


Display with metric or nautical units.
time (UTC)temp
F
wind
direction
speed
MPH
gust
MPH
rain 1hr
in
rain 24hr
in
rain mn
in
humidity
%
barometer
mb
20240224035017 55 0.0 0.0 0.00 0.00 0.00 52 1018.5
20240224034017 55 0.0 1.0 0.00 0.00 0.00 51 1018.4
20240224033016 56 0.0 1.0 0.00 0.00 0.00 50 1018.4
20240224032037 57 0.0 2.0 0.00 0.00 0.00 49 1018.4
20240224031016 57 0.0 0.0 0.00 0.00 0.00 48 1018.1
20240224030017 58 0.0 0.0 0.00 0.00 0.00 47 1018.3
20240224025017 58 0.0 1.0 0.00 0.00 0.00 47 1018.3
20240224024017 59 0.0 1.0 0.00 0.00 0.00 47 1018.2
20240224023017 59 338 2.0 3.0 0.00 0.00 0.00 46 1018.2
20240224022017 60 338 2.0 3.0 0.00 0.00 0.00 45 1017.9
20240224021017 60 338 1.0 3.0 0.00 0.00 0.00 44 1017.9
20240224020017 60 338 2.0 3.0 0.00 0.00 0.00 44 1017.9
20240224015037 61 338 1.0 3.0 0.00 0.00 0.00 43 1017.7
20240224014037 61 338 1.0 4.0 0.00 0.00 0.00 42 1017.6
20240224013037 62 0.0 0.0 0.00 0.00 0.00 42 1017.6
20240224012017 62 0.0 0.0 0.00 0.00 0.00 41 1017.4
20240224011017 63 0.0 0.0 0.00 0.00 0.00 40 1017.3
20240224010017 64 338 1.0 3.0 0.00 0.00 0.00 38 1017.2
20240224005037 65 338 1.0 3.0 0.00 0.00 0.00 38 1017.2
20240224004017 65 338 1.0 3.0 0.00 0.00 0.00 37 1017.1
20240224003017 66 338 1.0 3.0 0.00 0.00 0.00 36 1016.8
20240224002017 67 338 2.0 4.0 0.00 0.00 0.00 35 1016.6
20240224001017 68 338 1.0 3.0 0.00 0.00 0.00 35 1016.5
20240224000017 68 315 2.0 5.0 0.00 0.00 0.00 33 1016.3
20240223235017 69 315 2.0 5.0 0.00 0.00 0.00 32 1016.3
20240223234017 69 90 2.0 6.0 0.00 0.00 0.00 32 1016.1
20240223233017 70 293 3.0 8.0 0.00 0.00 0.00 31 1016.1
20240223232520 70 293 4.0 7.0 0.00 0.00 0.00 30 1016.1
20240223231557 70 338 2.0 5.0 0.00 0.00 0.00 30 1016.1
20240223230517 71 338 2.0 6.0 0.00 0.00 0.00 29 1016.1
20240223225517 72 338 3.0 8.0 0.00 0.00 0.00 29 1016.1
20240223224517 73 225 2.0 7.0 0.00 0.00 0.00 29 1016.0
20240223223517 73 338 3.0 9.0 0.00 0.00 0.00 28 1016.1
20240223222537 73 315 3.0 8.0 0.00 0.00 0.00 28 1015.9
20240223221517 73 225 3.0 6.0 0.00 0.00 0.00 28 1016.0
20240223220517 73 315 3.0 6.0 0.00 0.00 0.00 28 1016.1
20240223215517 73 338 2.0 5.0 0.00 0.00 0.00 28 1016.1
20240223214517 74 315 3.0 8.0 0.00 0.00 0.00 28 1016.2
20240223213517 73 68 2.0 6.0 0.00 0.00 0.00 29 1016.3
20240223212516 73 0 4.0 10.0 0.00 0.00 0.00 29 1016.5
20240223211517 73 315 4.0 8.0 0.00 0.00 0.00 28 1016.6
20240223210517 74 338 3.0 13.0 0.00 0.00 0.00 27 1016.7
20240223205517 74 293 3.0 7.0 0.00 0.00 0.00 29 1016.6
20240223204516 73 45 2.0 4.0 0.00 0.00 0.00 28 1016.9
20240223203537 73 248 3.0 8.0 0.00 0.00 0.00 26 1017.0
20240223202517 73 315 5.0 12.0 0.00 0.00 0.00 28 1017.0
20240223201517 73 338 3.0 9.0 0.00 0.00 0.00 30 1017.1
20240223200517 73 0 2.0 6.0 0.00 0.00 0.00 29 1017.0
20240223195516 73 23 4.0 11.0 0.00 0.00 0.00 30 1017.3
20240223194517 72 315 3.0 8.0 0.00 0.00 0.00 29 1017.4
20240223193517 72 293 3.0 7.0 0.00 0.00 0.00 29 1017.7
20240223192537 72 90 4.0 11.0 0.00 0.00 0.00 28 1018.0
20240223191517 72 338 3.0 11.0 0.00 0.00 0.00 28 1018.0
20240223190517 72 315 2.0 5.0 0.00 0.00 0.00 31 1018.2
20240223185517 72 68 3.0 10.0 0.00 0.00 0.00 31 1018.3
20240223184517 71 315 4.0 8.0 0.00 0.00 0.00 32 1018.5
20240223183537 71 338 3.0 5.0 0.00 0.00 0.00 33 1018.6
20240223182516 71 338 4.0 9.0 0.00 0.00 0.00 34 1018.7
20240223181517 71 338 4.0 11.0 0.00 0.00 0.00 34 1019.0
20240223180517 70 315 3.0 8.0 0.00 0.00 0.00 36 1019.3
20240223175517 70 0 4.0 9.0 0.00 0.00 0.00 36 1019.3
20240223174517 70 338 4.0 11.0 0.00 0.00 0.00 36 1019.3
20240223173537 69 68 3.0 12.0 0.00 0.00 0.00 39 1019.4
20240223172517 69 68 2.0 8.0 0.00 0.00 0.00 41 1019.5
20240223171517 68 45 2.0 8.0 0.00 0.00 0.00 42 1019.6
20240223170517 67 315 3.0 6.0 0.00 0.00 0.00 44 1019.5
20240223165517 66 45 2.0 5.0 0.00 0.00 0.00 47 1019.4
20240223164517 65 315 2.0 7.0 0.00 0.00 0.00 49 1019.3
20240223163517 64 0 2.0 6.0 0.00 0.00 0.00 49 1019.4
20240223162517 63 338 2.0 8.0 0.00 0.00 0.00 50 1019.3
20240223161517 63 338 3.0 8.0 0.00 0.00 0.00 52 1019.4
20240223160517 62 23 2.0 5.0 0.00 0.00 0.00 53 1019.3
20240223155537 61 68 2.0 8.0 0.00 0.00 0.00 54 1019.2
20240223154517 60 45 3.0 6.0 0.00 0.00 0.00 54 1019.2
20240223153517 59 315 2.0 6.0 0.00 0.00 0.00 57 1019.2
20240223152517 58 23 2.0 5.0 0.00 0.00 0.00 57 1019.1
20240223151517 58 0 2.0 6.0 0.00 0.00 0.00 58 1018.9
20240223150517 57 315 2.0 5.0 0.00 0.00 0.00 60 1018.8
20240223145537 56 338 2.0 4.0 0.00 0.00 0.00 62 1018.7
20240223144517 54 338 1.0 3.0 0.00 0.00 0.00 65 1018.6
20240223143517 53 338 2.0 5.0 0.00 0.00 0.00 68 1018.6
20240223142517 52 338 1.0 3.0 0.00 0.00 0.00 70 1018.3
20240223141537 50 338 1.0 3.0 0.00 0.00 0.00 72 1018.1
20240223140517 49 315 1.0 3.0 0.00 0.00 0.00 75 1018.0
20240223135516 48 0.0 2.0 0.00 0.00 0.00 77 1017.8
20240223134517 46 0.0 0.0 0.00 0.00 0.00 79 1017.6
20240223133517 46 0.0 0.0 0.00 0.00 0.00 80 1017.4
20240223132516 45 0.0 0.0 0.00 0.00 0.00 80 1017.2
20240223131517 45 0.0 0.0 0.00 0.00 0.00 80 1017.0
20240223130517 45 0.0 0.0 0.00 0.00 0.00 80 1017.0
20240223125516 45 0.0 0.0 0.00 0.00 0.00 80 1016.8
20240223124517 46 0.0 0.0 0.00 0.00 0.00 79 1016.6
20240223123517 46 0.0 0.0 0.00 0.00 0.00 79 1016.5
20240223122537 47 0.0 0.0 0.00 0.00 0.00 78 1016.3
20240223121517 47 0.0 0.0 0.00 0.00 0.00 77 1016.1
20240223120517 47 0.0 0.0 0.00 0.00 0.00 75 1015.9
20240223115517 48 0.0 0.0 0.00 0.00 0.00 75 1015.8
20240223114516 49 0.0 1.0 0.00 0.00 0.00 74 1015.8
20240223113517 49 0.0 1.0 0.00 0.00 0.00 73 1015.7
20240223112517 49 315 1.0 2.0 0.00 0.00 0.00 73 1015.6
20240223111517 49 0.0 2.0 0.00 0.00 0.00 73 1015.4
20240223110517 50 0.0 0.0 0.00 0.00 0.00 72 1015.1
20240223105517 50 0.0 0.0 0.00 0.00 0.00 71 1014.8
20240223104517 51 0.0 3.0 0.00 0.00 0.00 71 1014.6
20240223103537 51 315 1.0 3.0 0.00 0.00 0.00 71 1014.5
20240223102517 51 315 1.0 3.0 0.00 0.00 0.00 71 1014.5
20240223101517 51 315 1.0 2.0 0.00 0.00 0.00 71 1014.6
20240223100537 51 338 1.0 3.0 0.00 0.00 0.00 71 1014.6
20240223095537 51 315 1.0 5.0 0.00 0.00 0.00 71 1014.6
20240223094517 51 0 2.0 3.0 0.00 0.00 0.00 72 1014.7
20240223093517 51 338 1.0 3.0 0.00 0.00 0.00 71 1014.6
20240223092517 52 315 1.0 3.0 0.00 0.00 0.00 71 1014.6
20240223091517 52 0 1.0 4.0 0.00 0.00 0.00 71 1014.5
20240223090516 52 23 1.0 4.0 0.00 0.00 0.00 70 1014.5
20240223085516 53 338 1.0 5.0 0.00 0.00 0.00 70 1014.5
20240223084537 53 315 1.0 5.0 0.00 0.00 0.00 70 1014.4
20240223083517 53 293 1.0 6.0 0.00 0.00 0.00 70 1014.4
20240223082517 53 0 1.0 5.0 0.00 0.00 0.00 69 1014.3
20240223081517 54 23 1.0 2.0 0.00 0.00 0.00 68 1014.5
20240223080517 54 23 1.0 2.0 0.00 0.00 0.00 67 1014.4
20240223075556 55 0 1.0 3.0 0.00 0.00 0.00 67 1014.5
20240223074517 55 0 1.0 2.0 0.00 0.00 0.00 66 1014.3
20240223073517 56 0 1.0 5.0 0.00 0.00 0.00 66 1014.0
20240223072517 56 293 1.0 5.0 0.00 0.00 0.00 66 1014.0
20240223071516 56 293 1.0 4.0 0.00 0.00 0.00 65 1013.9
20240223070516 56 293 1.0 2.0 0.00 0.00 0.00 65 1013.9
20240223065516 57 293 1.0 3.0 0.00 0.00 0.00 65 1013.9
20240223064556 57 270 2.0 6.0 0.00 0.00 0.00 65 1013.8
20240223063516 57 293 1.0 4.0 0.00 0.00 0.00 65 1013.7
20240223062537 57 270 2.0 6.0 0.00 0.00 0.00 65 1013.7
20240223061516 58 113 1.0 3.0 0.00 0.00 0.00 64 1013.6
20240223060537 58 113 1.0 3.0 0.00 0.00 0.00 64 1013.6
20240223055517 58 338 1.0 3.0 0.00 0.00 0.00 63 1013.6
20240223054537 59 338 2.0 4.0 0.00 0.00 0.00 62 1013.5
20240223053537 59 338 2.0 4.0 0.00 0.00 0.00 62 1013.4
20240223052517 60 338 2.0 4.0 0.00 0.00 0.00 62 1013.3
20240223051537 60 338 2.0 5.0 0.00 0.00 0.00 61 1013.3
20240223050557 60 338 2.0 6.0 0.00 0.00 0.00 61 1013.1
20240223045517 60 315 2.0 5.0 0.00 0.00 0.00 61 1013.0
20240223044517 60 293 1.0 5.0 0.00 0.00 0.00 61 1012.8
20240223043517 60 0 1.0 3.0 0.00 0.00 0.00 60 1012.6
20240223042517 61 0 1.0 3.0 0.00 0.00 0.00 60 1012.5
20240223041517 61 0 1.0 4.0 0.00 0.00 0.00 60 1012.3
20240223040537 61 0 1.0 3.0 0.00 0.00 0.00 59 1012.1
20240223035517 62 0 2.0 4.0 0.00 0.00 0.00 58 1012.1